Starling 3

operational
NORAD ID: 57389 Int'l Des: 2023-100 Owner: ARC Country: US
LEOCIRCULARRETROGRADE

Starling 3について

説明を読み込み中...

リアルタイム位置

3D地球を読み込み中...

次回通過

高度履歴

Altitude vs Time

uPlot chart will show altitude changes over time

軌道要素

1 57389U 23100D 26062.45653014 .00008823 00000-0 53277-3 0 9990
2 57389 99.5090 57.5916 0006719 92.2053 267.9940 15.11025699144097
Epoch: Mar 3, 2026 • Age: 22 hours

現在のステータス

高度 565.0 km
速度 7.58 km/s
衛星直下点 -75.67°S, 28.79°W
打ち上げ日 Jul 18, 2023
運用期間 2.6 years
タイプ other

技術仕様

分類 Payload
質量 12.00 kg
乾燥質量 12.00 kg
総質量 12.00 kg
長さ 0.30 m
直径 0.20 m
スパン 0.50 m
形状 Box + 2 pan
製造者 BLCAN
バスタイプ Cubesat 6U
フェーズステータス In Orbit
所有者/国 ARC/US

大規模コンステレーション

Loading constellations...